^^
Saratoga-Weather Station Historical Data
Daily Summary for August 31, 2020 Units:  English    Metric   Both
Daily Weekly Monthly Yearly Custom
  High: Low: Average:
Temperature: 100 °F 59.5 °F 79.7 °F
Dew Point: 59.2 °F 48.2 °F 52.7 °F
Humidity: 71% 20% 43%
Wind Speed: 9mph 0mph 1mph
Wind Gust: 10mph - -
Wind- - ESE
Pressure: 30 in 29.9 in -
Precipitation: 0 in    
Historical Graphs
 
 
Tabular Data for August 31, 2020
Time Temperature Dew Point Pressure Wind Wind Speed Wind Gust Humidity Rainfall Rate (Hourly) solar
00:01 68.7 °F 49.3 °F 30 in Calm     50% 0 in 0 W/m2
00:06 68.5 °F 49.6 °F 30 in Calm     51% 0 in 0 W/m2
00:11 68.4 °F 49.5 °F 30 in Calm     51% 0 in 0 W/m2
00:16 67.8 °F 49.1 °F 30 in Calm     51% 0 in 0 W/m2
00:21 67.6 °F 48.9 °F 30 in Calm     51% 0 in 0 W/m2
00:26 67.5 °F 49.3 °F 30 in Calm     52% 0 in 0 W/m2
00:31 67.3 °F 49.1 °F 30 in Calm     52% 0 in 0 W/m2
00:36 66.9 °F 49.3 °F 30 in Calm   1 mph 53% 0 in 0 W/m2
00:41 66.7 °F 49.1 °F 30 in Calm     53% 0 in 0 W/m2
00:47 66.6 °F 49.5 °F 30 in Calm     54% 0 in 0 W/m2
00:52 66.4 °F 49.3 °F 30 in Calm     54% 0 in 0 W/m2
00:57 66.2 °F 49.1 °F 30 in Calm     54% 0 in 0 W/m2
01:02 65.8 °F 48.2 °F 30 in Calm     53% 0 in 0 W/m2
01:07 65.7 °F 48.6 °F 30 in Calm     54% 0 in 0 W/m2
01:12 65.5 °F 48.4 °F 30 in Calm     54% 0 in 0 W/m2
01:17 65.3 °F 48.7 °F 30 in Calm     55% 0 in 0 W/m2
01:22 65.1 °F 49.1 °F 30 in Calm   1 mph 56% 0 in 0 W/m2
01:27 64.9 °F 48.4 °F 30 in Calm     55% 0 in 0 W/m2
01:32 64.9 °F 48.9 °F 30 in Calm     56% 0 in 0 W/m2
01:37 64.8 °F 48.7 °F 30 in Calm     56% 0 in 0 W/m2
01:42 64.8 °F 48.7 °F 30 in Calm     56% 0 in 0 W/m2
01:47 64.6 °F 48.6 °F 30 in Calm   1 mph 56% 0 in 0 W/m2
01:52 64.6 °F 49.5 °F 30 in Calm     58% 0 in 0 W/m2
01:57 64.4 °F 49.3 °F 30 in Calm   1 mph 58% 0 in 0 W/m2
02:02 64.2 °F 49.1 °F 30 in Calm     58% 0 in 0 W/m2
02:07 64.2 °F 49.1 °F 30 in Calm     58% 0 in 0 W/m2
02:12 64.2 °F 48.7 °F 30 in WSW 0.9 mph 1 mph 57% 0 in 0 W/m2
02:17 64 °F 48.6 °F 30 in WSW 0.9 mph 2 mph 57% 0 in 0 W/m2
02:22 64.2 °F 48.7 °F 30 in WSW 0.9 mph 2 mph 57% 0 in 0 W/m2
02:27 64.2 °F 49.1 °F 30 in WSW 2 mph 2 mph 58% 0 in 0 W/m2
02:32 64.2 °F 49.1 °F 30 in Calm     58% 0 in 0 W/m2
02:37 64.2 °F 48.7 °F 30 in Calm     57% 0 in 0 W/m2
02:42 64.2 °F 49.1 °F 30 in Calm     58% 0 in 0 W/m2
02:47 64.2 °F 49.1 °F 30 in Calm     58% 0 in 0 W/m2
02:52 64 °F 48.9 °F 30 in Calm     58% 0 in 0 W/m2
02:57 64 °F 48.9 °F 30 in Calm     58% 0 in 0 W/m2
03:02 64 °F 49.5 °F 30 in Calm     59% 0 in 0 W/m2
03:07 64 °F 49.5 °F 30 in Calm     59% 0 in 0 W/m2
03:12 63.9 °F 49.3 °F 30 in Calm     59% 0 in 0 W/m2
03:18 63.7 °F 49.1 °F 30 in Calm     59% 0 in 0 W/m2
03:23 63.7 °F 49.5 °F 30 in Calm     60% 0 in 0 W/m2
03:28 63.3 °F 49.3 °F 30 in Calm     60% 0 in 0 W/m2
03:33 63.1 °F 49.1 °F 30 in Calm     60% 0 in 0 W/m2
03:38 63 °F 48.9 °F 30 in Calm     60% 0 in 0 W/m2
03:43 62.8 °F 49.1 °F 30 in Calm     61% 0 in 0 W/m2
03:48 62.6 °F 49.5 °F 30 in Calm     62% 0 in 0 W/m2
03:53 62.2 °F 49.1 °F 30 in Calm     62% 0 in 0 W/m2
03:58 62.1 °F 48.9 °F 30 in Calm     62% 0 in 0 W/m2
04:03 62.1 °F 49.3 °F 30 in Calm     63% 0 in 0 W/m2
04:08 61.9 °F 49.1 °F 30 in Calm     63% 0 in 0 W/m2
04:13 61.9 °F 49.1 °F 30 in WSW 0.9 mph 1 mph 63% 0 in 0 W/m2
04:18 62.1 °F 49.3 °F 30 in Calm     63% 0 in 0 W/m2
04:23 62.1 °F 49.3 °F 30 in Calm     63% 0 in 0 W/m2
04:28 61.9 °F 49.6 °F 30 in Calm     64% 0 in 0 W/m2
04:33 61.9 °F 49.6 °F 30 in Calm     64% 0 in 0 W/m2
04:38 61.7 °F 49.5 °F 30 in Calm     64% 0 in 0 W/m2
04:43 61.5 °F 49.3 °F 30 in Calm   2 mph 64% 0 in 0 W/m2
04:48 61.7 °F 49.5 °F 30 in Calm     64% 0 in 0 W/m2
04:53 61.5 °F 49.3 °F 30 in WSW 0.9 mph 2 mph 64% 0 in 0 W/m2
04:58 61.9 °F 49.6 °F 30 in Calm     64% 0 in 0 W/m2
05:03 61.7 °F 49.5 °F 30 in Calm     64% 0 in 0 W/m2
05:08 61.5 °F 49.3 °F 30 in Calm     64% 0 in 0 W/m2
05:13 61.5 °F 49.6 °F 30 in Calm   1 mph 65% 0 in 0 W/m2
05:18 61.5 °F 49.6 °F 30 in Calm     65% 0 in 0 W/m2
05:23 61.3 °F 49.5 °F 30 in Calm     65% 0 in 0 W/m2
05:28 61.3 °F 49.5 °F 30 in Calm   1 mph 65% 0 in 0 W/m2
05:33 61.2 °F 49.6 °F 30 in Calm   1 mph 66% 0 in 0 W/m2
05:38 61.2 °F 49.6 °F 30 in Calm     66% 0 in 0 W/m2
05:43 61 °F 49.5 °F 30 in Calm   1 mph 66% 0 in 0 W/m2
05:48 60.8 °F 49.5 °F 30 in Calm     66% 0 in 0 W/m2
05:53 60.6 °F 49.6 °F 30 in Calm     67% 0 in 0 W/m2
05:58 60.4 °F 49.5 °F 30 in Calm     67% 0 in 0 W/m2
06:03 60.4 °F 49.8 °F 30 in Calm   1 mph 68% 0 in 0 W/m2
06:08 60.3 °F 49.6 °F 30 in Calm     68% 0 in 0 W/m2
06:13 60.1 °F 49.5 °F 30 in Calm   1 mph 68% 0 in 5 W/m2
06:18 59.9 °F 49.3 °F 30 in Calm     68% 0 in 7 W/m2
06:23 59.7 °F 49.5 °F 30 in Calm     69% 0 in 9 W/m2
06:28 59.5 °F 49.8 °F 30 in Calm     70% 0 in 11 W/m2
06:33 59.5 °F 49.8 °F 30 in Calm     70% 0 in 12 W/m2
06:38 59.5 °F 49.8 °F 30 in WSW 0.9 mph 1 mph 70% 0 in 14 W/m2
06:43 59.5 °F 49.8 °F 30 in Calm     70% 0 in 16 W/m2
06:48 59.5 °F 50.2 °F 30 in Calm     71% 0 in 18 W/m2
06:53 59.7 °F 50 °F 30 in Calm     70% 0 in 19 W/m2
06:58 59.7 °F 50 °F 30 in Calm     70% 0 in 21 W/m2
07:03 59.9 °F 50.2 °F 30 in Calm     70% 0 in 21 W/m2
07:08 60.1 °F 50.7 °F 30 in Calm     71% 0 in 23 W/m2
07:13 60.3 °F 50.9 °F 30 in WSW 0.9 mph 1 mph 71% 0 in 25 W/m2
07:18 60.6 °F 50.4 °F 30 in WSW 0.9 mph 1 mph 69% 0 in 25 W/m2
07:23 61.2 °F 50.2 °F 30 in WSW 2 mph 2 mph 67% 0 in 25 W/m2
07:28 61.9 °F 50.4 °F 30 in Calm     66% 0 in 26 W/m2
07:33 62.2 °F 50.7 °F 30 in Calm   2 mph 66% 0 in 26 W/m2
07:38 62.8 °F 51.3 °F 30 in Calm     66% 0 in 28 W/m2
07:43 63.1 °F 51.3 °F 30 in Calm     65% 0 in 28 W/m2
07:49 63.5 °F 51.4 °F 30 in Calm   2 mph 65% 0 in 28 W/m2
07:54 64.2 °F 50.9 °F 30 in ENE 2 mph 2 mph 62% 0 in 30 W/m2
07:59 64.8 °F 51.4 °F 30 in SE 0.9 mph 2 mph 62% 0 in 58 W/m2
08:04 65.1 °F 51.8 °F 30 in Calm   1 mph 62% 0 in 91 W/m2
08:09 65.5 °F 51.6 °F 30 in Calm   2 mph 61% 0 in 232 W/m2
08:14 66.2 °F 52 °F 30 in SE 0.9 mph 2 mph 60% 0 in 244 W/m2
08:20 67.3 °F 52 °F 30 in ESE 0.9 mph 2 mph 58% 0 in 227 W/m2
08:25 68.4 °F 52.5 °F 30 in Calm     57% 0 in 100 W/m2
08:30 68.9 °F 52.5 °F 30 in Calm     56% 0 in 40 W/m2
08:35 70.3 °F 52.9 °F 30 in ESE 0.9 mph 2 mph 54% 0 in 39 W/m2
08:45 72.1 °F 53.1 °F 30 in WNW 0.9 mph 3 mph 51% 0 in 39 W/m2
08:50 72.1 °F 52.5 °F 30 in Calm   1 mph 50% 0 in 39 W/m2
08:55 72.3 °F 53.2 °F 30 in North 3 mph 3 mph 51% 0 in 40 W/m2
09:00 73.4 °F 53.1 °F 30 in Calm     49% 0 in 40 W/m2
09:05 74.1 °F 52.5 °F 30 in East 0.9 mph 1 mph 47% 0 in 42 W/m2
09:10 74.5 °F 52.9 °F 30 in North 0.9 mph 1 mph 47% 0 in 90 W/m2
09:15 74.5 °F 53.4 °F 30 in East 2 mph 3 mph 48% 0 in 288 W/m2
09:20 74.7 °F 53.1 °F 30 in Calm   2 mph 47% 0 in 418 W/m2
09:25 75.4 °F 52.5 °F 30 in ENE 2 mph 2 mph 45% 0 in 431 W/m2
09:30 75.6 °F 52.7 °F 30 in East 0.9 mph 3 mph 45% 0 in 448 W/m2
09:35 75.9 °F 53.6 °F 30 in NE 2 mph 4 mph 46% 0 in 461 W/m2
09:41 76.5 °F 53.6 °F 30 in Calm   3 mph 45% 0 in 475 W/m2
09:46 76.8 °F 53.2 °F 30 in NE 2 mph 4 mph 44% 0 in 485 W/m2
09:51 77.4 °F 53.8 °F 30 in ESE 2 mph 3 mph 44% 0 in 503 W/m2
09:56 77.5 °F 53.2 °F 30 in SW 0.9 mph 2 mph 43% 0 in 62 W/m2
10:01 77.9 °F 54.3 °F 30 in East 2 mph 6 mph 44% 0 in 49 W/m2
10:06 78.3 °F 54 °F 30 in ENE 2 mph 3 mph 43% 0 in 534 W/m2
10:11 78.6 °F 54.3 °F 30 in ESE 0.9 mph 6 mph 43% 0 in 552 W/m2
10:16 79 °F 54 °F 30 in East 0.9 mph 3 mph 42% 0 in 564 W/m2
10:21 79.2 °F 54.1 °F 30 in ESE 2 mph 6 mph 42% 0 in 578 W/m2
10:31 79.3 °F 54.9 °F 30 in East 0.9 mph 5 mph 43% 0 in 601 W/m2
10:36 79.9 °F 54.7 °F 30 in ENE 2 mph 3 mph 42% 0 in 615 W/m2
10:41 80.2 °F 54.3 °F 30 in NW 2.9 mph 3 mph 41% 0 in 626 W/m2
10:46 80.4 °F 54.5 °F 30 in ENE 2.9 mph 5 mph 41% 0 in 638 W/m2
10:51 80.8 °F 54.9 °F 30 in ENE 0.9 mph 4 mph 41% 0 in 647 W/m2
10:56 81.3 °F 55.4 °F 30 in ENE 2.9 mph 4 mph 41% 0 in 656 W/m2
11:02 81.9 °F 54.5 °F 30 in Calm   3 mph 39% 0 in 670 W/m2
11:07 82.4 °F 55 °F 30 in ENE 2 mph 4 mph 39% 0 in 679 W/m2
11:12 83.1 °F 54.9 °F 30 in ENE 4 mph 4 mph 38% 0 in 687 W/m2
11:17 83.8 °F 54.9 °F 30 in SE 2.9 mph 3 mph 37% 0 in 696 W/m2
11:22 84.4 °F 53.8 °F 30 in SE 2.9 mph 4 mph 35% 0 in 710 W/m2
11:27 84.7 °F 54.9 °F 30 in Calm   2 mph 36% 0 in 714 W/m2
11:32 85.3 °F 53.8 °F 30 in NE 2.9 mph 5 mph 34% 0 in 724 W/m2
11:42 86.4 °F 53.1 °F 30 in South 0.9 mph 3 mph 32% 0 in 745 W/m2
11:47 87.1 °F 52.7 °F 30 in SE 2 mph 8 mph 31% 0 in 749 W/m2
11:52 87.4 °F 53.1 °F 30 in Calm   4 mph 31% 0 in 761 W/m2
11:57 87.4 °F 53.1 °F 30 in NE 2.9 mph 8 mph 31% 0 in 765 W/m2
12:03 87.8 °F 52.5 °F 30 in NE 2.9 mph 3 mph 30% 0 in 775 W/m2
12:08 88.3 °F 53.1 °F 30 in SE 0.9 mph 5 mph 30% 0 in 782 W/m2
12:13 89.1 °F 52.7 °F 30 in North 2.9 mph 4 mph 29% 0 in 788 W/m2
12:18 89.6 °F 54.1 °F 30 in SSW 2 mph 3 mph 30% 0 in 798 W/m2
12:23 90.1 °F 51.6 °F 30 in Calm   8 mph 27% 0 in 800 W/m2
12:28 90.1 °F 52.7 °F 30 in ESE 0.9 mph 1 mph 28% 0 in 810 W/m2
12:33 90.5 °F 52.9 °F 30 in NNE 0.9 mph 6 mph 28% 0 in 812 W/m2
12:38 90.9 °F 52.3 °F 30 in East 6.9 mph 9 mph 27% 0 in 819 W/m2
12:43 90.9 °F 50.2 °F 30 in NE 2.9 mph 4 mph 25% 0 in 823 W/m2
12:48 91 °F 50.4 °F 30 in East 9 mph 9 mph 25% 0 in 828 W/m2
12:53 91 °F 49.3 °F 30 in NE 4 mph 4 mph 24% 0 in 831 W/m2
12:58 91.2 °F 52.5 °F 30 in NE 2.9 mph 3 mph 27% 0 in 837 W/m2
13:03 91.6 °F 49.6 °F 30 in North 0.9 mph 3 mph 24% 0 in 840 W/m2
13:08 91.8 °F 52 °F 30 in ENE 4 mph 6 mph 26% 0 in 846 W/m2
13:13 92.1 °F 51.3 °F 29.9 in NE 2.9 mph 6 mph 25% 0 in 846 W/m2
13:18 92.5 °F 50.4 °F 29.9 in SSE 2 mph 3 mph 24% 0 in 853 W/m2
13:23 92.8 °F 50.7 °F 29.9 in SE 2 mph 4 mph 24% 0 in 858 W/m2
13:28 93.2 °F 49.8 °F 29.9 in East 8.9 mph 9 mph 23% 0 in 858 W/m2
13:33 93.6 °F 50.2 °F 29.9 in ENE 2.9 mph 4 mph 23% 0 in 858 W/m2
13:38 93.4 °F 51.3 °F 29.9 in East 9 mph 9 mph 24% 0 in 860 W/m2
13:43 93.6 °F 51.3 °F 29.9 in ESE 4 mph 7 mph 24% 0 in 860 W/m2
13:48 93.6 °F 52.5 °F 29.9 in West 0.9 mph 4 mph 25% 0 in 861 W/m2
13:53 93.9 °F 51.6 °F 29.9 in Calm   4 mph 24% 0 in 860 W/m2
13:58 94.3 °F 52 °F 29.9 in ENE 2 mph 3 mph 24% 0 in 861 W/m2
14:03 94.3 °F 52 °F 29.9 in East 4 mph 6 mph 24% 0 in 860 W/m2
14:08 94.6 °F 51.1 °F 29.9 in NNW 4 mph 4 mph 23% 0 in 856 W/m2
14:13 95 °F 52.5 °F 29.9 in ENE 0.9 mph 6 mph 24% 0 in 856 W/m2
14:18 95 °F 51.4 °F 29.9 in North 2 mph 6 mph 23% 0 in 854 W/m2
14:23 95 °F 51.4 °F 29.9 in NW 2 mph 4 mph 23% 0 in 853 W/m2
14:28 95.2 °F 50.4 °F 29.9 in West 2.9 mph 6 mph 22% 0 in 849 W/m2
14:33 95.2 °F 51.6 °F 29.9 in East 2 mph 4 mph 23% 0 in 849 W/m2
14:38 95.4 °F 52.9 °F 29.9 in ESE 2 mph 6 mph 24% 0 in 844 W/m2
14:43 95.5 °F 51.8 °F 29.9 in East 2 mph 4 mph 23% 0 in 838 W/m2
14:48 95.5 °F 51.8 °F 29.9 in East 2.9 mph 4 mph 23% 0 in 837 W/m2
14:53 95.7 °F 53.2 °F 29.9 in SSE 2 mph 8 mph 24% 0 in 837 W/m2
14:58 96.3 °F 52.5 °F 29.9 in SE 0.9 mph 2 mph 23% 0 in 826 W/m2
15:03 96.6 °F 55 °F 29.9 in ENE 0.9 mph 2 mph 25% 0 in 830 W/m2
15:08 97 °F 51.8 °F 29.9 in ESE 6 mph 9 mph 22% 0 in 823 W/m2
15:13 97.3 °F 52.2 °F 29.9 in ESE 2.9 mph 3 mph 22% 0 in 817 W/m2
15:18 97.3 °F 52.2 °F 29.9 in ENE 4 mph 4 mph 22% 0 in 809 W/m2
15:23 97.3 °F 53.4 °F 29.9 in ESE 2 mph 6 mph 23% 0 in 803 W/m2
15:28 97.5 °F 52.3 °F 29.9 in East 0.9 mph 5 mph 22% 0 in 800 W/m2
15:33 97.2 °F 53.2 °F 29.9 in East 0.9 mph 3 mph 23% 0 in 791 W/m2
15:38 97.3 °F 52.2 °F 29.9 in NE 2 mph 4 mph 22% 0 in 784 W/m2
15:43 97.9 °F 53.8 °F 29.9 in East 4 mph 6 mph 23% 0 in 780 W/m2
15:48 98.1 °F 54 °F 29.9 in ENE 2 mph 3 mph 23% 0 in 770 W/m2
15:53 98.2 °F 56.3 °F 29.9 in East 6.9 mph 7 mph 25% 0 in 763 W/m2
15:58 98.4 °F 54.3 °F 29.9 in ENE 2.9 mph 4 mph 23% 0 in 754 W/m2
16:03 98.2 °F 54.1 °F 29.9 in East 2 mph 6 mph 23% 0 in 749 W/m2
16:08 98.2 °F 54.1 °F 29.9 in ENE 2.9 mph 4 mph 23% 0 in 740 W/m2
16:13 98.2 °F 52.9 °F 29.9 in ENE 0.9 mph 5 mph 22% 0 in 729 W/m2
16:18 97.9 °F 52.5 °F 29.9 in East 4 mph 7 mph 22% 0 in 721 W/m2
16:23 97.9 °F 53.8 °F 29.9 in ESE 2.9 mph 3 mph 23% 0 in 712 W/m2
16:28 98.2 °F 55.2 °F 29.9 in North 0.9 mph 10 mph 24% 0 in 700 W/m2
16:33 98.2 °F 54.1 °F 29.9 in NNE 4 mph 7 mph 23% 0 in 689 W/m2
16:38 98.4 °F 55.4 °F 29.9 in East 2 mph 8 mph 24% 0 in 680 W/m2
16:43 99 °F 54.7 °F 29.9 in NE 0.9 mph 2 mph 23% 0 in 673 W/m2
16:48 98.8 °F 54.5 °F 29.9 in ENE 2 mph 7 mph 23% 0 in 666 W/m2
16:53 99 °F 54.7 °F 29.9 in East 4 mph 4 mph 23% 0 in 666 W/m2
16:58 99 °F 53.4 °F 29.9 in SSE 0.9 mph 7 mph 22% 0 in 656 W/m2
17:03 99.1 °F 53.6 °F 29.9 in West 0.9 mph 2 mph 22% 0 in 640 W/m2
17:08 99.3 °F 56.1 °F 29.9 in Calm   2 mph 24% 0 in 635 W/m2
17:13 99.1 °F 54.9 °F 29.9 in ESE 2 mph 3 mph 23% 0 in 615 W/m2
17:18 99 °F 52.2 °F 29.9 in Calm   3 mph 21% 0 in 599 W/m2
17:23 99 °F 54.7 °F 29.9 in South 0.9 mph 3 mph 23% 0 in 578 W/m2
17:28 99.1 °F 52.3 °F 29.9 in ESE 0.9 mph 4 mph 21% 0 in 566 W/m2
17:33 99.5 °F 52.7 °F 29.9 in ESE 0.9 mph 3 mph 21% 0 in 555 W/m2
17:38 99.7 °F 55.2 °F 29.9 in Calm   3 mph 23% 0 in 541 W/m2
17:43 99.5 °F 54 °F 29.9 in WNW 2.9 mph 4 mph 22% 0 in 527 W/m2
17:48 99.1 °F 53.6 °F 29.9 in ENE 0.9 mph 1 mph 22% 0 in 513 W/m2
17:53 99 °F 53.4 °F 29.9 in ESE 0.9 mph 7 mph 22% 0 in 499 W/m2
17:58 99.3 °F 53.8 °F 29.9 in SSE 2 mph 2 mph 22% 0 in 489 W/m2
18:03 99.7 °F 54.1 °F 29.9 in ENE 0.9 mph 7 mph 22% 0 in 476 W/m2
18:08 99.7 °F 51.4 °F 29.9 in NE 0.9 mph 3 mph 20% 0 in 462 W/m2
18:13 99.7 °F 52.9 °F 29.9 in ENE 0.9 mph 6 mph 21% 0 in 446 W/m2
18:18 99.5 °F 52.7 °F 29.9 in West 0.9 mph 2 mph 21% 0 in 432 W/m2
18:23 99.5 °F 54 °F 29.9 in SE 0.9 mph 3 mph 22% 0 in 418 W/m2
18:28 99.7 °F 54.1 °F 29.9 in Calm   2 mph 22% 0 in 408 W/m2
18:33 99.9 °F 52.9 °F 29.9 in Calm   1 mph 21% 0 in 396 W/m2
18:38 100 °F 53.1 °F 29.9 in Calm   1 mph 21% 0 in 380 W/m2
18:43 99.9 °F 54.1 °F 29.9 in NE 0.9 mph 2 mph 22% 0 in 364 W/m2
18:48 99.7 °F 54.1 °F 29.9 in SE 2 mph 3 mph 22% 0 in 334 W/m2
18:53 99.5 °F 54 °F 29.9 in ENE 0.9 mph 2 mph 22% 0 in 306 W/m2
18:58 99.5 °F 55.2 °F 29.9 in ESE 2 mph 2 mph 23% 0 in 274 W/m2
19:03 99.1 °F 57.2 °F 29.9 in East 2 mph 2 mph 25% 0 in 257 W/m2
19:08 99 °F 58.1 °F 29.9 in Calm   2 mph 26% 0 in 236 W/m2
19:13 98.4 °F 56.5 °F 29.9 in Calm     25% 0 in 214 W/m2
19:18 98.1 °F 57.4 °F 29.9 in Calm   1 mph 26% 0 in 197 W/m2
19:23 97.5 °F 59 °F 29.9 in Calm     28% 0 in 185 W/m2
19:28 97.2 °F 56.5 °F 29.9 in ESE 0.9 mph 2 mph 26% 0 in 183 W/m2
19:33 97.2 °F 58.6 °F 29.9 in ESE 0.9 mph 2 mph 28% 0 in 190 W/m2
19:38 96.6 °F 58.1 °F 29.9 in Calm   1 mph 28% 0 in 192 W/m2
19:43 96.1 °F 58.6 °F 29.9 in Calm     29% 0 in 165 W/m2
19:48 95.4 °F 58.1 °F 29.9 in Calm   1 mph 29% 0 in 127 W/m2
19:53 95.2 °F 58.8 °F 29.9 in SSE 0.9 mph 2 mph 30% 0 in 113 W/m2
19:58 94.5 °F 59.2 °F 29.9 in SSE 0.9 mph 2 mph 31% 0 in 69 W/m2
20:03 94.1 °F 57.9 °F 29.9 in SSE 0.9 mph 2 mph 30% 0 in 63 W/m2
20:08 93.6 °F 58.5 °F 29.9 in SSE 0.9 mph 2 mph 31% 0 in 70 W/m2
20:13 92.8 °F 58.6 °F 29.9 in SSE 2 mph 2 mph 32% 0 in 42 W/m2
20:18 92.1 °F 58.1 °F 29.9 in Calm   1 mph 32% 0 in 65 W/m2
20:23 91.8 °F 57.7 °F 29.9 in Calm   2 mph 32% 0 in 69 W/m2
20:28 91.6 °F 58.5 °F 29.9 in SSE 0.9 mph 2 mph 33% 0 in 60 W/m2
20:33 91 °F 58.8 °F 29.9 in Calm   1 mph 34% 0 in 46 W/m2
20:38 90.5 °F 57.4 °F 29.9 in Calm     33% 0 in 26 W/m2
20:43 90 °F 58.6 °F 29.9 in SSE 0.9 mph 1 mph 35% 0 in 25 W/m2
20:48 89.4 °F 58.1 °F 29.9 in SSE 0.9 mph 2 mph 35% 0 in 19 W/m2
20:53 88.5 °F 58.1 °F 29.9 in SSE 0.9 mph 2 mph 36% 0 in 18 W/m2
20:58 88 °F 57.7 °F 29.9 in Calm     36% 0 in 14 W/m2
21:03 87.1 °F 57.6 °F 29.9 in Calm     37% 0 in 11 W/m2
21:08 86.2 °F 56.8 °F 29.9 in Calm     37% 0 in 7 W/m2
21:13 85.6 °F 57.2 °F 29.9 in Calm     38% 0 in 5 W/m2
21:18 85.3 °F 57.6 °F 29.9 in Calm     39% 0 in 0 W/m2
21:23 84.6 °F 56.8 °F 29.9 in Calm     39% 0 in 0 W/m2
21:28 83.8 °F 57 °F 29.9 in Calm     40% 0 in 0 W/m2
21:33 83.3 °F 56.5 °F 29.9 in Calm     40% 0 in 0 W/m2
21:38 82.8 °F 56.7 °F 29.9 in Calm   1 mph 41% 0 in 0 W/m2
21:43 82.2 °F 56.8 °F 29.9 in Calm     42% 0 in 0 W/m2
21:48 81.9 °F 56.5 °F 29.9 in Calm     42% 0 in 0 W/m2
21:54 81.3 °F 56.7 °F 29.9 in Calm     43% 0 in 0 W/m2
21:59 81 °F 56.3 °F 29.9 in Calm     43% 0 in 0 W/m2
22:04 80.4 °F 55.9 °F 29.9 in SSE 0.9 mph 1 mph 43% 0 in 0 W/m2
22:09 80.1 °F 56.1 °F 29.9 in Calm     44% 0 in 0 W/m2
22:14 79.9 °F 56.7 °F 29.9 in Calm     45% 0 in 0 W/m2
22:19 79.3 °F 56.1 °F 29.9 in Calm     45% 0 in 0 W/m2
22:24 79 °F 55.8 °F 29.9 in Calm   1 mph 45% 0 in 0 W/m2
22:29 78.8 °F 56.3 °F 29.9 in Calm     46% 0 in 0 W/m2
22:34 78.4 °F 56.5 °F 29.9 in Calm     47% 0 in 0 W/m2
22:39 78.1 °F 56.3 °F 29.9 in Calm     47% 0 in 0 W/m2
22:44 77.7 °F 55.9 °F 29.9 in Calm     47% 0 in 0 W/m2
22:49 77.5 °F 56.3 °F 29.9 in Calm     48% 0 in 0 W/m2
22:54 77.2 °F 56.5 °F 29.9 in Calm     49% 0 in 0 W/m2
22:59 77 °F 56.3 °F 29.9 in Calm     49% 0 in 0 W/m2
23:04 76.8 °F 56.8 °F 29.9 in Calm     50% 0 in 0 W/m2
23:09 76.6 °F 56.7 °F 29.9 in Calm     50% 0 in 0 W/m2
23:14 76.5 °F 56.5 °F 29.9 in Calm     50% 0 in 0 W/m2
23:19 76.3 °F 56.3 °F 29.9 in Calm     50% 0 in 0 W/m2
23:24 76.1 °F 56.7 °F 29.9 in Calm     51% 0 in 0 W/m2
23:29 75.9 °F 56.5 °F 29.9 in Calm     51% 0 in 0 W/m2
23:34 75.7 °F 56.3 °F 29.9 in Calm     51% 0 in 0 W/m2
23:39 75.6 °F 56.1 °F 29.9 in Calm     51% 0 in 0 W/m2
23:44 75.4 °F 55.9 °F 29.9 in Calm     51% 0 in 0 W/m2
23:49 75 °F 56.1 °F 29.9 in Calm     52% 0 in 0 W/m2
23:54 74.8 °F 56.1 °F 29.9 in Calm     52% 0 in 0 W/m2
23:59 74.7 °F 56.5 °F 29.9 in Calm     53% 0 in 0 W/m2
Juneau County Weather
Compliments of Weather Underground - 4 mb